SCP
0 0 0 0 0 0 0 0 0 0 0 0 0 0 0 0 0 0 0 0 0 0 0 0 0 0 0 0 0 0 0 0 -0 0 0 0 -0 0 0 -0 -0 0 0 0 0 0 0 0 0 0 0 0 0 0
0 0 0 0 0 0 0 0 0 0 0 0 0 0 0 0 0 0 0 0 0 0 0 0 -0 -0 -0 -0 0 0 0 0 -0 0 0 0 0 0 -0 -0 -0 0 0 0 0 0 0 0 0 0 0 0 0 0
0 0 0 0 0 0 0 0 0 0 0 0 0 0 0 0 0 0 0 0 0 0 0 0 0 0 0 -0 -0 0 0 0 0 -0 0 0 0 0 0 -0 -0 -0 -0 0 0 0 0 0 0 0 0 0 0 0
0 0 0 0 0 0 0 0 0 0 0 0 0 0 0 0 0 0 0 0 0 0 0 0 0 0 0 0 0 -0 -0 0 0 -0 0 -0 0 -0 -0 -0 0 -0 -0 0 0 0 0 0 0 0 0 0 0 0
0 0 0 0 0 0 0 0 0 0 0 0 0 0 0 0 0 0 0 0 0 0 0 0 0 0 0 -0 -0 0 -0 0 0 0 0 0 0 0 -0 0 0 -0 -0 0 0 0 0 0 0 0 0 0 0 0
0 0 0 0 0 0 0 0 0 0 0 -0 -0 -0 0 0 0 0 0 0 0 0 0 0 0 0 0 0 0 -0 -0 0 0 0 0 -0 0 -0 0 0 -0 -0 -0 -0 -0 0 0 0 0 0 0 0 0 0
0 0 0 0 0 0 0 0 0 0 -0 -0 -0 -0 0 0 0 0 0 0 0 0 0 0 0 0 0 0 0 0 0 0 -0 0 0 0 0 0 -0 -0 0 0 -0 -0 -0 -0 0 0 0 0 0 0 0 0
0 0 0 0 0 0 0 0 0 0 0 -0 -0 0 0 0 0 0 0 0 0 0 0 0 0 0 0 0 0 0 0 0 0 0 0 0 -0 0 0 0 0 0 0 0 0 -0 0 0 0 0 0 0 0 0
0 0 0 0 0 0 0 0 0 0 0 -0 0 0 0 0 0 0 0 0 0 0 0 0 0 0 0 0 0 0 0 0 0 0 0 0 -0 -0 0 0 0 -0 -0 0 -0 0 0 0 0 0 0 0 0 0
0 0 0 0 0 0 0 0 0 0 0 0 0 0 0 0 0 0 0 0 0 0 0 0 0 0 0 0 0 0 0 0 0 0 0 0 -0 0 -0 -0 -0 -0 -0 -0 -0 -0 -0 0 0 0 0 0 0 0
0 0 0 0 0 0 0 0 0 0 0 0 0 0 0 0 0 0 0 0 0 0 0 0 0 0 0 0 0 0 0 0 0 0 0 0 0 0 -0 0 -0 0 -0 -0 -0 -0 -0 0 0 0 0 0 0 0
-0 0 0 0 0 0 0 0 0 0 0 0 0 0 0 0 0 0 0 0 0 0 0 0 0 0 0 0 0 0 0 0 0 0 0 0 0 0 0 0 0 0 0 0 0 0 -0 0 0 0 0 0 0 0
-0 -0 0 0 0 0 0 0 0 0 0 0 0 0 0 0 0 0 -0 -0 0 0 0 0 0 0 0 0 0 0 0 0 0 0 0 0 0 0 0 0 -0 0 0 0 0 0 0 0 0 0 0 0 0 0
-0 -0 0 0 0 0 0 0 -0 0 0 0 0 0 0 0 0 0 0 0 0 0 -0 0 0 0 0 0 0 0 0 0 0 0 0 0 0 0 0 0 -0 -0 0 0 0 0 0 0 0 0 0 0 0 0
-0 -0 0 0 0 -0 0 0 0 0 0 0 0 0 0 0 0 0 0 0 0 0 0 0 0 0 0 0 0 0 0 0 0 0 0 0 0 0 0 -0 -0 -0 -0 0 0 0 0 0 0 0 0 0 0 0
-0 -0 0 0 -0 0 -0 -0 0 0 0 0 0 0 0 0 0 0 0 0 0 0 0 0 0 0 0 0 0 0 0 0 0 0 0 0 0 0 0 -0 -0 -0 -0 0 0 0 0 0 0 0 0 0 0 0
0 0 0 0 -0 0 0 0 0 0 0 0 0 0 0 0 0 0 0 0 0 0 -0 0 -0 0 0 0 0 0 0 0 0 0 0 0 0 0 0 0 0 -0 -0 -0 -0 0 0 0 0 0 0 0 0 0
0 0 0 0 0 0 0 0 0 0 0 0 0 0 0 0 0 0 0 0 0 0 0 0 0 0 0 0 0 0 0 0 0 0 0 0 0 0 0 0 0 -0 0 -0 -0 -0 -0 0 0 0 0 0 0 0
0 0 0 0 0 0 0 0 0 0 0 0 0 0 0 0 0 0 0 0 0 0 0 0 0 0 0 0 0 0 0 0 0 0 0 -0 -0 -0 -0 -0 -0 -0 -0 -0 -0 -0 -0 -0 0 0 0 0 0 0
0 0 0 0 0 0 0 0 0 0 0 0 0 0 0 0 0 0 0 0 0 0 0 0 0 0 0 0 0 0 0 0 0 0 0 -0 -0 -0 -0 -0 -0 -0 -0 -0 -0 -0 0 -0 0 0 0 0 0 0
0 0 0 0 0 0 0 0 0 0 0 0 0 0 0 0 0 0 0 0 0 0 0 0 0 0 0 0 0 0 0 0 0 0 0 0 -0 -0 -0 -0 -0 -0 -0 -0 -0 -0 -0 0 0 0 0 0 0 0
0 0 0 0 0 0 0 0 0 0 0 0 0 0 0 0 0 0 0 0 0 0 0 0 0 0 0 0 0 0 0 0 0 0 0 0 0 -0 -0 -0 -0 -0 -0 -0 -0 -0 -0 -0 -0 -0 0 0 0 0
0 0 0 0 0 0 0 0 0 0 0 0 0 0 0 0 0 0 0 0 0 0 0 0 0 0 0 0 0 0 0 0 0 0 0 0 0 0 0 -0 -0 -0 -0 -0 -0 -0 -0 -0 0 -0 0 0 0 0
0 0 0 0 0 0 0 0 0 0 0 0 0 0 0 0 0 0 0 0 0 0 0 0 0 0 0 0 0 0 0 0 0 0 0 0 0 0 0 0 -0 -0 -0 -0 -0 -0 -0 -0 -0 -0 -0 -0 -0 0
0 0 0 0 0 0 0 0 0 0 0 0 0 0 0 0 0 0 0 0 0 0 0 0 0 0 0 0 0 0 0 0 0 0 0 0 0 0 0 0 0 -0 0 0 -0 -0 -0 -0 -0 -0 -0 -0 -0 -0
0 0 0 0 0 0 0 0 0 0 0 0 0 0 0 0 0 0 0 0 0 0 0 0 0 0 0 0 0 0 0 0 0 0 0 0 0 0 0 0 0 0 0 0 -0 -0 -0 -0 0 0 0 -0 0 -0
0 0 0 0 0 0 0 0 0 0 0 0 0 0 0 0 0 0 0 0 0 0 0 0 0 0 0 0 0 0 0 0 0 0 0 0 0 0 0 0 0 0 0 0 0 0 0 0 0 0 0 0 0 0
0 0 0 0 0 0 0 0 0 0 0 0 0 0 0 0 0 0 0 0 0 0 0 0 0 0 0 0 0 0 0 0 0 0 0 0 0 0 0 0 0 0 0 0 0 0 0 0 0 0 0 0 0 0
0 0 0 0 0 0 0 0 0 0 0 0 0 0 0 0 0 0 0 0 0 0 0 0 0 0 0 0 0 0 0 0 0 0 0 0 0 0 0 0 0 0 0 0 0 0 0 0 0 0 0 0 0 0
0 0 0 0 0 0 0 0 0 0 0 0 0 0 0 0 0 0 0 0 0 0 0 0 0 0 0 0 0 0 0 0 0 0 0 0 0 0 0 0 0 0 0 0 0 0 0 0 0 0 0 0 0 0
0 0 0 0 0 0 0 0 0 0 0 0 0 0 0 0 0 0 0 0 0 0 0 0 0 0 0 0 0 0 0 0 0 0 0 0 0 0 0 0 0 0 0 0 0 0 0 0 0 0 0 0 0 0
0 0 0 0 0 0 0 0 0 0 0 0 0 0 0 0 0 0 0 0 0 0 0 0 0 0 0 0 0 0 0 0 0 0 0 0 0 0 0 0 0 0 0 0 0 0 0 0 0 0 0 0 0 0
0 0 0 0 0 0 0 0 0 0 0 0 0 0 0 0 0 0 0 0 0 0 0 0 0 0 0 0 0 0 0 0 0 0 0 0 0 0 0 0 0 0 0 0 0 0 0 0 0 0 0 0 0 0
Wind_Speed_500mb
58 59 60 59 58 60 62 63 59 53 65 67 62 51 33 22 16 22 24 15 18 19 57 51 44 21 27 30 6 15 18 2 6 7 4 5 4 1 4 5 9 4 9 7 8 9 6 43 15 15 22 55 51 48
59 61 62 62 61 61 64 62 52 59 68 67 62 49 30 22 16 21 30 13 16 32 52 69 78 67 64 45 42 12 6 5 5 2 2 6 4 4 4 5 7 6 4 4 7 5 3 37 18 39 47 46 52 54
60 62 64 64 62 62 64 57 55 64 69 65 60 49 35 25 18 23 27 25 22 28 52 20 24 12 32 39 26 17 10 10 8 6 4 3 7 5 3 3 3 6 9 6 12 3 21 43 36 58 58 55 60 49
59 62 64 66 64 63 62 54 58 67 67 63 58 45 34 29 26 22 24 18 17 15 10 23 46 42 18 21 31 31 45 14 14 22 7 3 5 4 3 2 5 7 6 1 11 19 37 10 63 70 76 79 81 62
58 62 64 67 67 64 62 53 60 68 67 63 53 33 28 28 28 23 19 11 17 15 8 21 26 21 15 23 32 34 43 50 27 6 3 6 6 4 5 6 5 4 4 2 3 31 22 34 63 72 73 87 85 66
59 61 63 65 68 66 63 53 61 68 66 61 45 28 24 25 28 25 5 7 12 22 12 7 22 20 28 43 41 31 35 43 20 9 7 11 11 4 6 6 5 23 19 18 8 32 43 58 52 38 67 69 70 55
58 60 65 65 67 67 63 53 63 66 64 56 40 32 25 26 24 15 11 26 26 16 9 10 10 13 30 34 24 15 13 13 18 10 10 10 15 9 5 5 15 33 26 29 26 32 36 43 39 56 59 57 57 53
57 59 61 66 68 69 66 52 64 64 61 52 41 32 27 24 21 9 15 17 20 16 8 6 8 15 17 13 10 19 11 3 9 7 5 5 6 3 2 16 29 34 36 15 16 25 40 58 60 54 49 44 58 63
57 60 62 65 68 70 66 52 67 62 58 47 35 26 9 7 11 21 29 15 5 7 2 4 6 7 17 11 12 17 12 5 14 3 3 8 5 4 11 30 37 30 22 37 40 39 30 37 53 44 44 38 52 58
59 60 66 65 66 67 57 54 68 59 55 42 17 9 4 13 33 15 6 5 3 4 5 6 9 6 7 7 6 12 7 2 4 2 17 3 1 9 25 42 39 41 34 33 30 23 20 29 47 48 43 39 41 43
61 60 63 64 63 62 45 62 65 63 51 38 20 7 23 21 7 5 6 6 8 6 9 14 15 6 5 3 4 9 4 5 5 5 8 4 2 6 41 57 59 57 46 37 43 45 40 48 53 46 52 36 41 39
60 64 62 64 68 63 44 61 63 61 51 39 29 24 13 7 4 5 4 8 2 6 10 8 12 4 3 6 5 7 4 5 5 12 4 4 5 42 61 62 62 59 58 50 39 45 41 44 50 49 50 42 48 35
63 65 62 67 63 48 53 57 59 54 46 23 6 6 5 3 10 3 4 8 6 8 17 26 11 6 2 8 4 3 5 4 15 5 6 6 35 56 65 59 63 66 60 53 44 43 40 43 50 38 44 48 48 35
61 61 66 64 45 51 57 58 51 44 16 7 5 9 7 7 7 8 9 9 24 18 45 37 7 3 5 7 2 5 5 3 10 7 5 15 58 70 71 68 66 73 67 41 29 36 38 39 39 32 38 40 50 48
57 62 61 52 53 59 57 54 42 25 8 8 7 6 10 14 14 19 24 18 25 27 34 8 3 5 5 5 5 6 11 7 4 6 9 48 76 76 73 78 77 86 69 50 36 19 24 29 29 24 33 41 48 38
59 60 51 57 63 62 56 48 28 8 8 9 13 4 10 2 16 22 32 27 19 24 18 3 4 5 5 4 7 3 8 4 9 6 42 55 62 68 64 68 75 80 77 57 36 22 9 17 15 10 25 31 29 37
53 58 58 57 65 61 48 38 8 11 11 10 12 29 23 15 22 35 27 22 13 11 3 2 4 3 1 6 6 3 4 7 32 51 54 39 45 55 60 61 69 67 75 73 53 37 11 5 6 9 9 15 38 33
62 55 48 53 54 53 39 7 8 11 13 22 9 28 27 29 32 29 20 17 11 5 3 3 7 3 6 4 6 7 19 44 35 37 43 34 41 48 50 51 53 63 66 67 76 56 42 16 14 19 15 19 18 29
61 52 45 44 31 31 12 8 10 10 19 22 26 32 28 27 27 28 26 21 21 12 7 5 3 5 6 11 14 23 17 19 25 32 32 28 35 42 44 49 50 50 67 57 58 70 59 28 23 19 27 32 36 31
51 44 45 19 21 9 10 14 10 15 10 13 22 27 24 26 28 29 26 20 27 12 7 6 9 12 15 16 14 12 11 15 16 23 23 17 27 36 46 46 48 45 44 55 62 51 75 61 25 15 3 7 19 24
44 37 30 25 18 21 14 12 13 16 16 14 18 29 23 23 20 22 27 22 21 13 7 21 27 24 19 17 11 11 10 13 10 16 15 22 22 28 35 42 44 48 50 44 50 51 42 55 50 40 9 10 16 16
35 30 26 15 12 13 19 24 18 13 13 17 24 29 15 9 15 30 24 17 13 25 29 30 25 25 21 18 9 7 7 8 3 15 15 16 24 26 33 40 41 45 46 49 42 53 32 39 46 43 46 44 24 30
23 11 9 14 14 13 17 21 14 13 7 8 5 4 6 6 10 15 9 13 17 32 31 26 22 26 21 15 8 8 7 10 12 10 20 25 14 16 24 32 37 39 40 39 35 31 30 37 39 47 50 43 49 42
19 9 11 13 24 11 12 9 12 9 9 3 2 7 7 11 10 8 7 11 30 35 38 35 40 33 22 18 11 19 10 3 7 14 22 21 19 13 18 32 32 29 32 28 32 28 28 26 30 33 34 42 49 54
10 16 13 15 16 10 8 6 7 1 8 8 6 8 7 5 2 5 6 10 26 39 28 39 40 30 24 23 22 17 10 4 3 11 19 21 17 16 13 22 21 24 28 26 22 28 22 20 20 24 27 31 40 47
12 14 18 16 7 10 8 6 8 10 4 4 8 8 6 6 7 9 6 9 9 13 36 45 38 28 17 13 16 18 14 6 9 18 20 13 13 14 12 15 15 21 26 27 21 17 23 20 17 20 23 27 28 39
11 13 19 22 11 8 9 9 3 6 2 6 6 4 6 9 9 7 9 12 12 9 24 35 34 33 26 25 27 25 21 14 11 13 16 12 12 9 12 15 14 15 21 27 19 11 14 18 17 11 12 17 24 31
25 10 11 12 15 16 5 3 6 8 8 12 6 6 7 12 8 4 3 10 16 22 25 29 26 24 29 23 29 29 21 7 4 7 4 2 6 4 1 11 6 4 15 20 24 19 19 17 15 12 11 13 17 18
15 14 20 9 13 11 17 14 11 18 25 20 10 4 8 4 25 19 11 10 12 26 22 22 24 28 28 41 37 28 19 13 11 5 10 8 8 10 9 10 4 5 9 13 22 27 28 26 20 12 9 7 9 9
16 33 15 12 10 14 19 33 30 39 35 36 39 28 32 41 26 23 17 10 18 21 26 32 28 38 45 42 35 26 16 10 7 4 5 7 6 7 9 8 13 15 18 24 25 21 23 27 24 19 11 5 3 4
11 38 14 15 11 25 43 42 41 44 46 50 44 40 43 17 14 17 18 21 23 23 25 32 32 32 31 23 19 14 9 3 6 7 9 10 13 12 11 9 9 11 11 12 18 23 25 19 19 17 17 14 8 4
22 27 15 9 10 26 30 24 26 22 19 14 19 29 20 20 19 14 17 18 21 23 24 28 39 34 21 19 17 12 13 13 10 8 7 7 9 14 19 23 25 24 18 12 7 9 16 17 14 12 10 8 9 8
29 24 28 17 10 8 14 16 9 7 12 13 15 21 18 18 9 13 20 21 21 25 28 21 23 22 24 20 12 10 7 3 4 7 8 8 9 10 9 11 10 9 9 8 6 7 10 12 12 11 9 8 8 8
Wind_Direction_500mb
349 348 348 349 350 348 346 346 344 344 345 343 343 342 330 318 298 289 294 273 262 264 288 268 261 248 266 290 262 302 330 8 319 23 306 318 303 271 101 73 96 351 313 183 200 240 252 348 17 49 313 321 308 294
346 348 347 348 349 349 348 348 347 346 346 344 345 345 330 321 304 275 289 296 261 275 266 294 289 278 267 268 261 258 257 286 254 315 328 291 279 301 191 165 202 208 197 323 271 267 44 345 342 333 328 326 324 319
341 345 347 347 347 349 350 350 348 347 346 344 346 346 339 328 295 280 283 287 288 280 302 284 314 342 300 289 281 226 222 221 236 257 303 292 294 317 356 82 200 219 223 238 310 39 333 313 335 343 344 336 333 335
338 341 345 346 346 347 349 349 347 348 347 342 343 347 346 348 337 302 284 292 269 282 292 305 325 328 350 331 309 272 253 234 272 313 274 262 268 359 345 143 261 215 229 209 281 285 309 225 328 331 334 341 355 12
334 339 342 344 345 346 347 346 346 347 347 340 340 343 349 358 350 330 306 282 260 247 279 291 330 358 316 318 324 315 259 252 256 282 275 260 257 225 219 185 225 171 256 283 326 311 293 284 312 320 333 343 351 3
331 336 339 342 343 344 345 343 344 346 347 341 338 334 331 345 355 346 306 260 276 236 299 309 310 294 319 330 314 305 302 246 224 203 238 265 260 228 344 346 194 199 197 222 234 302 299 291 319 320 333 345 353 9
328 333 338 340 341 343 343 340 343 345 346 340 330 325 320 323 326 337 325 306 306 257 303 295 297 284 313 324 338 353 350 203 215 215 223 239 255 240 201 219 349 353 322 261 265 286 296 300 308 327 329 339 350 14
325 329 334 339 339 340 340 336 341 343 343 340 326 320 313 311 324 327 329 324 292 258 287 285 281 313 338 315 328 346 316 274 204 254 260 248 306 225 257 338 328 341 341 47 350 295 305 283 306 310 327 331 350 4
320 328 331 333 337 337 339 334 339 342 343 342 330 331 334 348 340 323 328 334 290 242 250 278 295 302 334 326 349 340 346 328 341 6 318 333 324 44 330 332 331 325 335 310 312 296 313 278 289 304 326 327 342 353
316 325 331 332 333 335 339 339 338 341 346 349 344 344 308 322 324 327 342 320 288 206 227 252 243 262 295 313 14 355 357 335 313 286 310 156 243 214 321 325 314 316 302 311 305 297 257 285 292 297 317 311 314 334
312 322 330 334 333 333 332 340 339 341 352 353 337 305 315 326 336 349 336 20 343 311 227 250 251 267 339 342 319 5 324 335 341 338 325 302 272 301 317 314 311 310 309 298 296 292 277 265 281 299 294 291 290 320
313 318 327 331 332 328 322 334 339 336 334 321 306 300 322 346 356 36 307 319 351 257 281 256 316 293 329 24 36 5 340 335 279 334 276 282 279 318 317 312 313 316 309 295 297 286 279 264 257 259 268 284 279 297
305 311 321 328 329 323 324 330 333 323 321 315 288 288 329 339 33 98 330 304 298 268 284 319 320 300 91 49 87 300 351 299 307 320 321 264 308 321 323 326 329 321 316 284 284 278 267 249 249 249 253 263 272 272
306 306 320 327 320 322 325 326 324 319 308 269 244 309 150 290 241 192 193 221 281 268 312 323 296 11 16 53 324 25 270 322 343 338 316 320 318 321 329 334 349 341 344 336 309 276 259 247 239 236 250 251 243 244
301 308 318 326 328 321 323 321 319 302 225 247 217 237 222 230 255 271 294 281 294 325 324 323 357 26 2 78 10 347 5 352 353 320 301 318 320 330 335 342 350 353 355 354 346 308 259 241 234 263 238 244 246 246
298 305 317 328 325 318 326 320 316 226 236 230 233 223 227 267 280 289 302 283 311 322 332 13 45 37 4 101 45 7 321 296 315 251 306 317 330 343 352 357 356 1 3 10 355 353 270 235 277 288 238 252 252 243
293 296 313 321 319 321 325 318 256 230 235 229 241 224 232 243 260 279 288 274 287 317 306 91 6 243 43 32 3 204 232 240 274 297 322 328 324 345 352 359 5 6 7 14 11 6 8 216 261 199 194 229 208 214
288 302 311 321 317 325 331 266 244 250 250 237 218 248 241 253 271 284 274 253 243 247 220 224 136 100 159 184 279 243 256 311 317 326 346 357 350 350 359 7 11 14 21 19 19 21 17 348 274 259 225 212 206 217
291 299 306 315 308 327 304 268 234 261 249 256 256 255 256 274 268 281 276 269 229 225 184 150 135 192 224 209 225 282 304 326 313 342 357 353 357 2 3 12 14 18 23 14 19 18 15 11 355 300 253 241 241 245
286 293 304 274 298 283 271 266 250 261 258 241 243 252 255 253 259 269 277 271 224 198 152 179 208 214 214 248 260 275 289 331 352 346 351 357 359 7 10 6 8 12 19 27 22 16 19 23 30 21 30 212 228 238
289 296 298 291 274 226 257 269 250 256 268 250 268 256 252 250 243 255 272 266 198 197 213 221 235 243 240 239 233 302 309 337 352 356 340 350 2 10 10 11 13 17 21 19 19 19 33 26 20 46 68 68 92 48
291 298 294 274 238 235 249 238 236 285 280 261 276 267 251 233 241 268 266 208 217 236 239 247 250 215 214 207 248 291 332 338 333 23 20 4 353 3 14 16 13 18 19 14 12 19 34 32 31 36 40 39 51 70
286 261 235 219 228 242 255 229 231 216 229 262 260 237 264 243 225 218 214 220 247 249 243 236 220 209 203 195 191 163 75 44 37 28 22 7 355 4 7 7 6 13 15 14 15 29 53 36 43 40 45 39 48 62
223 224 232 227 207 252 249 236 226 241 229 263 230 242 244 237 248 208 227 223 255 256 259 246 200 180 180 186 188 178 156 107 19 2 0 354 347 332 350 356 352 358 11 11 19 25 33 56 55 51 55 61 52 54
217 230 214 238 221 232 234 243 232 205 242 219 223 249 265 211 170 235 233 242 251 266 275 195 185 200 205 211 181 175 163 177 332 343 339 337 335 349 1 359 8 4 8 14 20 19 28 28 38 57 60 63 72 74
216 220 195 206 231 195 217 242 215 215 219 249 244 253 225 150 203 247 231 244 255 279 217 201 201 191 185 181 205 210 219 236 314 340 350 331 352 344 343 343 8 21 15 2 358 6 17 34 46 52 50 46 66 81
234 250 225 221 237 248 263 249 216 75 320 257 245 257 183 221 234 246 238 265 270 273 202 192 190 190 201 221 209 211 223 241 293 355 2 334 313 322 338 332 342 8 13 9 8 357 10 23 26 45 56 63 59 62
229 237 206 196 217 224 238 235 181 199 223 237 228 231 232 196 223 310 242 230 210 190 197 192 194 201 210 221 214 210 209 203 84 85 6 328 197 213 136 46 29 8 35 19 22 16 8 25 33 38 53 64 62 49
226 217 200 235 219 231 219 199 208 221 221 202 171 230 294 3 13 359 17 343 227 189 194 212 219 238 227 186 185 187 184 184 203 278 317 326 324 324 286 270 301 337 38 21 11 11 12 5 357 3 13 31 53 44
227 201 212 214 201 214 224 204 228 241 244 246 245 252 252 267 294 291 275 240 230 220 211 214 223 191 184 185 184 182 182 197 206 223 243 260 284 317 345 322 288 270 293 304 317 325 350 355 346 340 331 333 23 52
202 189 218 220 243 239 246 251 261 264 266 266 268 260 258 207 250 269 247 208 213 214 198 179 182 196 197 184 175 167 167 210 292 300 280 261 251 256 270 290 318 334 336 331 328 333 335 336 344 343 339 341 353 48
200 200 196 212 247 268 260 248 258 245 256 231 235 231 175 171 188 191 176 169 178 176 177 174 162 155 173 197 191 213 264 281 281 279 283 286 276 272 269 271 282 297 306 306 310 353 354 353 356 7 11 359 353 8
210 217 217 246 256 238 219 202 223 226 201 201 213 213 182 149 137 177 182 178 185 185 186 214 250 247 238 234 208 177 171 199 290 315 323 314 301 289 286 277 283 298 301 302 303 348 355 353 358 8 26 40 62 65
Wind_Speed_850mb
58 59 60 59 58 60 62 63 59 53 65 67 62 51 33 22 16 22 24 15 18 19 57 51 44 21 27 30 6 15 18 2 6 7 4 5 4 1 4 5 9 4 9 7 8 9 6 43 15 15 22 55 51 48
59 61 62 62 61 61 64 62 52 59 68 67 62 49 30 22 16 21 30 13 16 32 52 69 78 67 64 45 42 12 6 5 5 2 2 6 4 4 4 5 7 6 4 4 7 5 3 37 18 39 47 46 52 54
60 62 64 64 62 62 64 57 55 64 69 65 60 49 35 25 18 23 27 25 22 28 52 20 24 12 32 39 26 17 10 10 8 6 4 3 7 5 3 3 3 6 9 6 12 3 21 43 36 58 58 55 60 49
59 62 64 66 64 63 62 54 58 67 67 63 58 45 34 29 26 22 24 18 17 15 10 23 46 42 18 21 31 31 45 14 14 22 7 3 5 4 3 2 5 7 6 1 11 19 37 10 63 70 76 79 81 62
58 62 64 67 67 64 62 53 60 68 67 63 53 33 28 28 28 23 19 11 17 15 8 21 26 21 15 23 32 34 43 50 27 6 3 6 6 4 5 6 5 4 4 2 3 31 22 34 63 72 73 87 85 66
59 61 63 65 68 66 63 53 61 68 66 61 45 28 24 25 28 25 5 7 12 22 12 7 22 20 28 43 41 31 35 43 20 9 7 11 11 4 6 6 5 23 19 18 8 32 43 58 52 38 67 69 70 55
58 60 65 65 67 67 63 53 63 66 64 56 40 32 25 26 24 15 11 26 26 16 9 10 10 13 30 34 24 15 13 13 18 10 10 10 15 9 5 5 15 33 26 29 26 32 36 43 39 56 59 57 57 53
57 59 61 66 68 69 66 52 64 64 61 52 41 32 27 24 21 9 15 17 20 16 8 6 8 15 17 13 10 19 11 3 9 7 5 5 6 3 2 16 29 34 36 15 16 25 40 58 60 54 49 44 58 63
57 60 62 65 68 70 66 52 67 62 58 47 35 26 9 7 11 21 29 15 5 7 2 4 6 7 17 11 12 17 12 5 14 3 3 8 5 4 11 30 37 30 22 37 40 39 30 37 53 44 44 38 52 58
59 60 66 65 66 67 57 54 68 59 55 42 17 9 4 13 33 15 6 5 3 4 5 6 9 6 7 7 6 12 7 2 4 2 17 3 1 9 25 42 39 41 34 33 30 23 20 29 47 48 43 39 41 43
61 60 63 64 63 62 45 62 65 63 51 38 20 7 23 21 7 5 6 6 8 6 9 14 15 6 5 3 4 9 4 5 5 5 8 4 2 6 41 57 59 57 46 37 43 45 40 48 53 46 52 36 41 39
60 64 62 64 68 63 44 61 63 61 51 39 29 24 13 7 4 5 4 8 2 6 10 8 12 4 3 6 5 7 4 5 5 12 4 4 5 42 61 62 62 59 58 50 39 45 41 44 50 49 50 42 48 35
63 65 62 67 63 48 53 57 59 54 46 23 6 6 5 3 10 3 4 8 6 8 17 26 11 6 2 8 4 3 5 4 15 5 6 6 35 56 65 59 63 66 60 53 44 43 40 43 50 38 44 48 48 35
61 61 66 64 45 51 57 58 51 44 16 7 5 9 7 7 7 8 9 9 24 18 45 37 7 3 5 7 2 5 5 3 10 7 5 15 58 70 71 68 66 73 67 41 29 36 38 39 39 32 38 40 50 48
57 62 61 52 53 59 57 54 42 25 8 8 7 6 10 14 14 19 24 18 25 27 34 8 3 5 5 5 5 6 11 7 4 6 9 48 76 76 73 78 77 86 69 50 36 19 24 29 29 24 33 41 48 38
59 60 51 57 63 62 56 48 28 8 8 9 13 4 10 2 16 22 32 27 19 24 18 3 4 5 5 4 7 3 8 4 9 6 42 55 62 68 64 68 75 80 77 57 36 22 9 17 15 10 25 31 29 37
53 58 58 57 65 61 48 38 8 11 11 10 12 29 23 15 22 35 27 22 13 11 3 2 4 3 1 6 6 3 4 7 32 51 54 39 45 55 60 61 69 67 75 73 53 37 11 5 6 9 9 15 38 33
62 55 48 53 54 53 39 7 8 11 13 22 9 28 27 29 32 29 20 17 11 5 3 3 7 3 6 4 6 7 19 44 35 37 43 34 41 48 50 51 53 63 66 67 76 56 42 16 14 19 15 19 18 29
61 52 45 44 31 31 12 8 10 10 19 22 26 32 28 27 27 28 26 21 21 12 7 5 3 5 6 11 14 23 17 19 25 32 32 28 35 42 44 49 50 50 67 57 58 70 59 28 23 19 27 32 36 31
51 44 45 19 21 9 10 14 10 15 10 13 22 27 24 26 28 29 26 20 27 12 7 6 9 12 15 16 14 12 11 15 16 23 23 17 27 36 46 46 48 45 44 55 62 51 75 61 25 15 3 7 19 24
44 37 30 25 18 21 14 12 13 16 16 14 18 29 23 23 20 22 27 22 21 13 7 21 27 24 19 17 11 11 10 13 10 16 15 22 22 28 35 42 44 48 50 44 50 51 42 55 50 40 9 10 16 16
35 30 26 15 12 13 19 24 18 13 13 17 24 29 15 9 15 30 24 17 13 25 29 30 25 25 21 18 9 7 7 8 3 15 15 16 24 26 33 40 41 45 46 49 42 53 32 39 46 43 46 44 24 30
23 11 9 14 14 13 17 21 14 13 7 8 5 4 6 6 10 15 9 13 17 32 31 26 22 26 21 15 8 8 7 10 12 10 20 25 14 16 24 32 37 39 40 39 35 31 30 37 39 47 50 43 49 42
19 9 11 13 24 11 12 9 12 9 9 3 2 7 7 11 10 8 7 11 30 35 38 35 40 33 22 18 11 19 10 3 7 14 22 21 19 13 18 32 32 29 32 28 32 28 28 26 30 33 34 42 49 54
10 16 13 15 16 10 8 6 7 1 8 8 6 8 7 5 2 5 6 10 26 39 28 39 40 30 24 23 22 17 10 4 3 11 19 21 17 16 13 22 21 24 28 26 22 28 22 20 20 24 27 31 40 47
12 14 18 16 7 10 8 6 8 10 4 4 8 8 6 6 7 9 6 9 9 13 36 45 38 28 17 13 16 18 14 6 9 18 20 13 13 14 12 15 15 21 26 27 21 17 23 20 17 20 23 27 28 39
11 13 19 22 11 8 9 9 3 6 2 6 6 4 6 9 9 7 9 12 12 9 24 35 34 33 26 25 27 25 21 14 11 13 16 12 12 9 12 15 14 15 21 27 19 11 14 18 17 11 12 17 24 31
25 10 11 12 15 16 5 3 6 8 8 12 6 6 7 12 8 4 3 10 16 22 25 29 26 24 29 23 29 29 21 7 4 7 4 2 6 4 1 11 6 4 15 20 24 19 19 17 15 12 11 13 17 18
15 14 20 9 13 11 17 14 11 18 25 20 10 4 8 4 25 19 11 10 12 26 22 22 24 28 28 41 37 28 19 13 11 5 10 8 8 10 9 10 4 5 9 13 22 27 28 26 20 12 9 7 9 9
16 33 15 12 10 14 19 33 30 39 35 36 39 28 32 41 26 23 17 10 18 21 26 32 28 38 45 42 35 26 16 10 7 4 5 7 6 7 9 8 13 15 18 24 25 21 23 27 24 19 11 5 3 4
11 38 14 15 11 25 43 42 41 44 46 50 44 40 43 17 14 17 18 21 23 23 25 32 32 32 31 23 19 14 9 3 6 7 9 10 13 12 11 9 9 11 11 12 18 23 25 19 19 17 17 14 8 4
22 27 15 9 10 26 30 24 26 22 19 14 19 29 20 20 19 14 17 18 21 23 24 28 39 34 21 19 17 12 13 13 10 8 7 7 9 14 19 23 25 24 18 12 7 9 16 17 14 12 10 8 9 8
29 24 28 17 10 8 14 16 9 7 12 13 15 21 18 18 9 13 20 21 21 25 28 21 23 22 24 20 12 10 7 3 4 7 8 8 9 10 9 11 10 9 9 8 6 7 10 12 12 11 9 8 8 8
Wind_Direction_850mb
349 348 348 349 350 348 346 346 344 344 345 343 343 342 330 318 298 289 294 273 262 264 288 268 261 248 266 290 262 302 330 8 319 23 306 318 303 271 101 73 96 351 313 183 200 240 252 348 17 49 313 321 308 294
346 348 347 348 349 349 348 348 347 346 346 344 345 345 330 321 304 275 289 296 261 275 266 294 289 278 267 268 261 258 257 286 254 315 328 291 279 301 191 165 202 208 197 323 271 267 44 345 342 333 328 326 324 319
341 345 347 347 347 349 350 350 348 347 346 344 346 346 339 328 295 280 283 287 288 280 302 284 314 342 300 289 281 226 222 221 236 257 303 292 294 317 356 82 200 219 223 238 310 39 333 313 335 343 344 336 333 335
338 341 345 346 346 347 349 349 347 348 347 342 343 347 346 348 337 302 284 292 269 282 292 305 325 328 350 331 309 272 253 234 272 313 274 262 268 359 345 143 261 215 229 209 281 285 309 225 328 331 334 341 355 12
334 339 342 344 345 346 347 346 346 347 347 340 340 343 349 358 350 330 306 282 260 247 279 291 330 358 316 318 324 315 259 252 256 282 275 260 257 225 219 185 225 171 256 283 326 311 293 284 312 320 333 343 351 3
331 336 339 342 343 344 345 343 344 346 347 341 338 334 331 345 355 346 306 260 276 236 299 309 310 294 319 330 314 305 302 246 224 203 238 265 260 228 344 346 194 199 197 222 234 302 299 291 319 320 333 345 353 9
328 333 338 340 341 343 343 340 343 345 346 340 330 325 320 323 326 337 325 306 306 257 303 295 297 284 313 324 338 353 350 203 215 215 223 239 255 240 201 219 349 353 322 261 265 286 296 300 308 327 329 339 350 14
325 329 334 339 339 340 340 336 341 343 343 340 326 320 313 311 324 327 329 324 292 258 287 285 281 313 338 315 328 346 316 274 204 254 260 248 306 225 257 338 328 341 341 47 350 295 305 283 306 310 327 331 350 4
320 328 331 333 337 337 339 334 339 342 343 342 330 331 334 348 340 323 328 334 290 242 250 278 295 302 334 326 349 340 346 328 341 6 318 333 324 44 330 332 331 325 335 310 312 296 313 278 289 304 326 327 342 353
316 325 331 332 333 335 339 339 338 341 346 349 344 344 308 322 324 327 342 320 288 206 227 252 243 262 295 313 14 355 357 335 313 286 310 156 243 214 321 325 314 316 302 311 305 297 257 285 292 297 317 311 314 334
312 322 330 334 333 333 332 340 339 341 352 353 337 305 315 326 336 349 336 20 343 311 227 250 251 267 339 342 319 5 324 335 341 338 325 302 272 301 317 314 311 310 309 298 296 292 277 265 281 299 294 291 290 320
313 318 327 331 332 328 322 334 339 336 334 321 306 300 322 346 356 36 307 319 351 257 281 256 316 293 329 24 36 5 340 335 279 334 276 282 279 318 317 312 313 316 309 295 297 286 279 264 257 259 268 284 279 297
305 311 321 328 329 323 324 330 333 323 321 315 288 288 329 339 33 98 330 304 298 268 284 319 320 300 91 49 87 300 351 299 307 320 321 264 308 321 323 326 329 321 316 284 284 278 267 249 249 249 253 263 272 272
306 306 320 327 320 322 325 326 324 319 308 269 244 309 150 290 241 192 193 221 281 268 312 323 296 11 16 53 324 25 270 322 343 338 316 320 318 321 329 334 349 341 344 336 309 276 259 247 239 236 250 251 243 244
301 308 318 326 328 321 323 321 319 302 225 247 217 237 222 230 255 271 294 281 294 325 324 323 357 26 2 78 10 347 5 352 353 320 301 318 320 330 335 342 350 353 355 354 346 308 259 241 234 263 238 244 246 246
298 305 317 328 325 318 326 320 316 226 236 230 233 223 227 267 280 289 302 283 311 322 332 13 45 37 4 101 45 7 321 296 315 251 306 317 330 343 352 357 356 1 3 10 355 353 270 235 277 288 238 252 252 243
293 296 313 321 319 321 325 318 256 230 235 229 241 224 232 243 260 279 288 274 287 317 306 91 6 243 43 32 3 204 232 240 274 297 322 328 324 345 352 359 5 6 7 14 11 6 8 216 261 199 194 229 208 214
288 302 311 321 317 325 331 266 244 250 250 237 218 248 241 253 271 284 274 253 243 247 220 224 136 100 159 184 279 243 256 311 317 326 346 357 350 350 359 7 11 14 21 19 19 21 17 348 274 259 225 212 206 217
291 299 306 315 308 327 304 268 234 261 249 256 256 255 256 274 268 281 276 269 229 225 184 150 135 192 224 209 225 282 304 326 313 342 357 353 357 2 3 12 14 18 23 14 19 18 15 11 355 300 253 241 241 245
286 293 304 274 298 283 271 266 250 261 258 241 243 252 255 253 259 269 277 271 224 198 152 179 208 214 214 248 260 275 289 331 352 346 351 357 359 7 10 6 8 12 19 27 22 16 19 23 30 21 30 212 228 238
289 296 298 291 274 226 257 269 250 256 268 250 268 256 252 250 243 255 272 266 198 197 213 221 235 243 240 239 233 302 309 337 352 356 340 350 2 10 10 11 13 17 21 19 19 19 33 26 20 46 68 68 92 48
291 298 294 274 238 235 249 238 236 285 280 261 276 267 251 233 241 268 266 208 217 236 239 247 250 215 214 207 248 291 332 338 333 23 20 4 353 3 14 16 13 18 19 14 12 19 34 32 31 36 40 39 51 70
286 261 235 219 228 242 255 229 231 216 229 262 260 237 264 243 225 218 214 220 247 249 243 236 220 209 203 195 191 163 75 44 37 28 22 7 355 4 7 7 6 13 15 14 15 29 53 36 43 40 45 39 48 62
223 224 232 227 207 252 249 236 226 241 229 263 230 242 244 237 248 208 227 223 255 256 259 246 200 180 180 186 188 178 156 107 19 2 0 354 347 332 350 356 352 358 11 11 19 25 33 56 55 51 55 61 52 54
217 230 214 238 221 232 234 243 232 205 242 219 223 249 265 211 170 235 233 242 251 266 275 195 185 200 205 211 181 175 163 177 332 343 339 337 335 349 1 359 8 4 8 14 20 19 28 28 38 57 60 63 72 74
216 220 195 206 231 195 217 242 215 215 219 249 244 253 225 150 203 247 231 244 255 279 217 201 201 191 185 181 205 210 219 236 314 340 350 331 352 344 343 343 8 21 15 2 358 6 17 34 46 52 50 46 66 81
234 250 225 221 237 248 263 249 216 75 320 257 245 257 183 221 234 246 238 265 270 273 202 192 190 190 201 221 209 211 223 241 293 355 2 334 313 322 338 332 342 8 13 9 8 357 10 23 26 45 56 63 59 62
229 237 206 196 217 224 238 235 181 199 223 237 228 231 232 196 223 310 242 230 210 190 197 192 194 201 210 221 214 210 209 203 84 85 6 328 197 213 136 46 29 8 35 19 22 16 8 25 33 38 53 64 62 49
226 217 200 235 219 231 219 199 208 221 221 202 171 230 294 3 13 359 17 343 227 189 194 212 219 238 227 186 185 187 184 184 203 278 317 326 324 324 286 270 301 337 38 21 11 11 12 5 357 3 13 31 53 44
227 201 212 214 201 214 224 204 228 241 244 246 245 252 252 267 294 291 275 240 230 220 211 214 223 191 184 185 184 182 182 197 206 223 243 260 284 317 345 322 288 270 293 304 317 325 350 355 346 340 331 333 23 52
202 189 218 220 243 239 246 251 261 264 266 266 268 260 258 207 250 269 247 208 213 214 198 179 182 196 197 184 175 167 167 210 292 300 280 261 251 256 270 290 318 334 336 331 328 333 335 336 344 343 339 341 353 48
200 200 196 212 247 268 260 248 258 245 256 231 235 231 175 171 188 191 176 169 178 176 177 174 162 155 173 197 191 213 264 281 281 279 283 286 276 272 269 271 282 297 306 306 310 353 354 353 356 7 11 359 353 8
210 217 217 246 256 238 219 202 223 226 201 201 213 213 182 149 137 177 182 178 185 185 186 214 250 247 238 234 208 177 171 199 290 315 323 314 301 289 286 277 283 298 301 302 303 348 355 353 358 8 26 40 62 65